Location: Carabito
(9.8355°N, 67.9249°W)
Time: 23:10:39
(UTC+00:00)

CZ-4B R/B - Pass Details

Date: 23 May 2024
Orbit: 808 x 881 km, 99.0° (Epoch: 25 June)

Event Time Altitude Azimuth Distance (km) Brightness Sun altitude
Exits shadow 00:53:19 74° 248° (WSW) 865 3.2 -29.0°
Maximum altitude 00:53:24 75° 257° (WSW) 864 3.2 -29.0°
Drops below altitude 10° 00:58:44 10° 342° (NNW) 2,415 6.1 -30.1°
Sets 01:01:04 0° 344° (NNW) 3,338 6.9 -30.6°
